sat.trackr.live / text

‹ back to catalog

NORBI

NORAD 46494 · 2020-068J

PAYLOAD ACTIVE UNKNOWN

§ Identity

Operator
Country
CIS
Launch date
2020-09-28
Launch site
PLMSC
Launch vehicle
Mass (kg)
RCS (m²)

External: N2YO · Heavens-Above · Gunter

§ Orbital elements

Epoch: 2026-05-25T03:26:58.056000Z

Period
93.06 min
Inclination
97.8642°
Eccentricity
0.0005870
Mean motion
15.47339779 rev/d
Perigee alt
420.5 km
Apogee alt
428.5 km
Semi-major
6,802.6 km
B*
3.9340e-4
RAAN
159.0967°
Arg perigee
1.2166°
Mean anomaly
358.9096°
Rev number
31,264

§ Raw data

NORBI1 46494U 20068J   26145.14372750  .00020030  00000+0  39340-3 0  99962 46494  97.8642 159.0967 0005870   1.2166 358.9096 15.47339779312649

JSON: /api/v1/satellites/46494 · /tle

For live sub-satellite position, see the globe view (requires WebGL).

§ Visibility from observer

Set your observer location to see the next 7 days of passes ≥ 10°. The values pass through the URL so the page stays shareable.

No JS? Fill the form by hand. The geolocation button needs JavaScript.

§ Radio — SatNOGS DB

ModeDescriptionDownlinkUplink
GFSK Mode U - GFSK9k6 436.700 MHz
LoRa Mode U - LoRa 436.703 MHz

2 transmitters · refreshed weekly from db.satnogs.org